Kimball, NE

7:25 AM MDT on July 27, 2017 (GMT -0600)
Kimball Municipal-Arraj

Weather History for KIBM - May, 2014

Change the Weather History Date:

Tuesday, May 6, 2014

  Actual Average (KSNY) Record (KSNY)
Temperature  
Mean Temperature 55 °F -  
Max Temperature 70 °F 65 °F 86 °F (1966)
Min Temperature 40 °F 37 °F 22 °F (1948)
Degree Days  
Heating Degree Days 10    
Growing Degree Days 5 (Base 50)    
Moisture  
Dew Point 43 °F    
Average Humidity 54    
Maximum Humidity 89    
Minimum Humidity 33    
Precipitation  
Precipitation 0.10 in - - ()
Sea Level Pressure  
Sea Level Pressure 29.64 in    
Wind  
Wind Speed 12 mph (NNE)    
Max Wind Speed 29 mph    
Max Gust Speed 40 mph    
Visibility 10 miles    
Events Rain , Thunderstorm    
Averages and records for this station are not official NWS values.
T = Trace of Precipitation, MM = Missing Value Source: NWS Daily Summary

Daily Weather History Graph

Daily Weather History Graph

Search for Another Location

Airport or City:

Trip Planner

Search our weather history database for the weather conditions in past years. The results will help you decide how hot, cold, wet, or windy it might be!

Date:

Astronomy

May. 06, 2014 Rise Set
Actual Time 6:46 AM CDT 8:57 PM CDT
Civil Twilight 6:15 AM CDT 9:27 PM CDT
Nautical Twilight 5:38 AM CDT 10:05 PM CDT
Astronomical Twilight 4:57 AM CDT 10:46 PM CDT
Moon 1:05 PM CDT (5/6) 2:17 AM CDT (5/6)
Length of Visible Light 15h 12m
Length of Day
14h 11m
Waxing Crescent, 46% of the Moon is Illuminated
May 6
Waxing Crescent
May 6
First Quarter
May 14
Full
May 21
Last Quarter
May 28
New

Hourly Weather History & Observations

Time (CDT) Temp. Windchill Dew Point Humidity Pressure Visibility Wind Dir Wind Speed Gust Speed Precip Events Conditions
12:15 AM 54.9 °F - 41.2 °F 60% 29.74 in 10.0 mi SSE 13.8 mph - N/A   Clear
12:35 AM 54.5 °F - 41.4 °F 61% 29.73 in 10.0 mi SSE 13.8 mph - N/A   Clear
12:55 AM 53.8 °F - 41.4 °F 63% 29.73 in 10.0 mi SSE 13.8 mph - N/A   Clear
1:15 AM 52.7 °F - 41.4 °F 65% 29.72 in 10.0 mi SSE 13.8 mph - N/A   Clear
1:35 AM 51.6 °F - 41.4 °F 68% 29.71 in 10.0 mi SSE 11.5 mph - N/A   Clear
1:55 AM 50.9 °F - 41.7 °F 71% 29.71 in 10.0 mi SSE 11.5 mph - N/A   Clear
2:15 AM 50.9 °F - 41.9 °F 71% 29.69 in 10.0 mi SSE 9.2 mph - N/A   Clear
6:55 AM 41.4 °F 37.6 °F 38.3 °F 89% 29.68 in 10.0 mi West 5.8 mph - N/A   Clear
7:15 AM 40.8 °F 35.0 °F 37.4 °F 88% 29.68 in 10.0 mi West 9.2 mph - N/A   Clear
7:35 AM 42.3 °F 38.6 °F 38.3 °F 86% 29.68 in 10.0 mi WNW 5.8 mph - N/A   Clear
7:55 AM 46.4 °F 41.9 °F 42.1 °F 85% 29.68 in 10.0 mi WNW 9.2 mph - N/A   Clear
8:15 AM 50.2 °F - 43.5 °F 78% 29.68 in 10.0 mi NW 8.1 mph - N/A   Clear
8:55 AM 51.4 °F - 44.6 °F 77% 29.68 in 10.0 mi NW 8.1 mph - N/A   Clear
9:15 AM 52.2 °F - 45.3 °F 78% 29.67 in 10.0 mi NW 10.4 mph - N/A   Clear
9:35 AM 54.7 °F - 44.2 °F 68% 29.68 in 10.0 mi North 11.5 mph - N/A   Clear
9:55 AM 55.9 °F - 43.9 °F 64% 29.68 in 10.0 mi NNW 11.5 mph 16.1 mph N/A   Clear
10:15 AM 58.3 °F - 45.0 °F 61% 29.68 in 10.0 mi North 11.5 mph - N/A   Clear
10:55 AM 59.2 °F - 44.4 °F 58% 29.68 in 10.0 mi NNW 11.5 mph - N/A   Clear
11:15 AM 60.4 °F - 44.8 °F 56% 29.67 in 10.0 mi NNW 13.8 mph 18.4 mph N/A   Clear
11:35 AM 61.3 °F - 44.8 °F 55% 29.67 in 10.0 mi NNW 11.5 mph - N/A   Clear
11:55 AM 61.7 °F - 44.2 °F 53% 29.67 in 10.0 mi NNW 10.4 mph 16.1 mph N/A   Clear
12:15 PM 62.1 °F - 44.8 °F 53% 29.67 in 10.0 mi North 11.5 mph - N/A   Clear
12:35 PM 64.8 °F - 45.3 °F 49% 29.66 in 10.0 mi NNW 11.5 mph - N/A   Clear
12:55 PM 65.1 °F - 43.9 °F 46% 29.66 in 10.0 mi North 11.5 mph - N/A   Clear
1:15 PM 66.2 °F - 44.4 °F 45% 29.66 in 10.0 mi NNE 11.5 mph - N/A   Clear
1:35 PM 68.5 °F - 43.2 °F 40% 29.65 in 10.0 mi NNE 12.7 mph 18.4 mph N/A   Clear
1:55 PM 69.4 °F - 41.0 °F 36% 29.65 in 10.0 mi NNE 12.7 mph 16.1 mph N/A   Clear
2:15 PM 68.5 °F - 41.4 °F 37% 29.64 in 10.0 mi NNE 10.4 mph - N/A   Clear
2:35 PM 68.9 °F - 43.0 °F 39% 29.64 in 10.0 mi ENE 12.7 mph 17.3 mph N/A   Clear
2:55 PM 68.9 °F - 42.1 °F 38% 29.64 in 10.0 mi ENE 6.9 mph - N/A   Clear
3:15 PM 68.4 °F - 42.6 °F 39% 29.64 in 10.0 mi NE 8.1 mph 18.4 mph N/A   Clear
3:35 PM 70.7 °F - 43.7 °F 38% 29.64 in 10.0 mi North 9.2 mph - N/A   Clear
3:55 PM 70.5 °F - 40.8 °F 34% 29.63 in 10.0 mi NNE 9.2 mph 17.3 mph N/A   Clear
4:15 PM 70.3 °F - 42.3 °F 36% 29.62 in 10.0 mi ENE 11.5 mph - N/A   Clear
4:35 PM 70.9 °F - 42.8 °F 36% 29.61 in 10.0 mi ENE 11.5 mph 17.3 mph N/A   Clear
4:55 PM 70.9 °F - 41.5 °F 35% 29.60 in 10.0 mi East 10.4 mph 18.4 mph N/A   Clear
5:15 PM 69.3 °F - 39.9 °F 34% 29.60 in 10.0 mi East 11.5 mph 17.3 mph N/A   Clear
5:35 PM 70.0 °F - 39.2 °F 33% 29.59 in 10.0 mi East 12.7 mph 17.3 mph N/A   Clear
5:55 PM 68.9 °F - 41.5 °F 37% 29.59 in 10.0 mi East 16.1 mph - N/A   Clear
6:15 PM 68.9 °F - 42.1 °F 38% 29.59 in 10.0 mi East 15.0 mph - N/A   Clear
6:35 PM 69.3 °F - 41.4 °F 36% 29.59 in 10.0 mi East 13.8 mph - N/A   Clear
6:55 PM 68.5 °F - 41.5 °F 37% 29.59 in 10.0 mi East 11.5 mph 18.4 mph N/A   Clear
7:15 PM 69.1 °F - 40.1 °F 35% 29.59 in 10.0 mi East 15.0 mph - N/A   Clear
7:35 PM 68.0 °F - 41.4 °F 38% 29.59 in 10.0 mi East 13.8 mph - N/A   Clear
7:55 PM 66.0 °F - 41.9 °F 41% 29.59 in 10.0 mi ENE 10.4 mph - N/A   Clear
8:15 PM 64.4 °F - 43.3 °F 46% 29.59 in 10.0 mi ENE 9.2 mph - N/A   Clear
8:35 PM 63.0 °F - 43.7 °F 49% 29.59 in 10.0 mi NE 10.4 mph - N/A   Clear
8:55 PM 61.0 °F - 44.1 °F 54% 29.59 in 10.0 mi NNE 9.2 mph - N/A   Clear
9:15 PM 59.9 °F - 44.6 °F 57% 29.59 in 10.0 mi NNE 6.9 mph - N/A   Clear
9:35 PM 60.1 °F - 44.2 °F 56% 29.59 in 10.0 mi NE 8.1 mph - N/A   Clear
10:15 PM 61.5 °F - 45.0 °F 55% 29.60 in 10.0 mi North 15.0 mph - N/A Thunderstorm Overcast
10:35 PM 61.0 °F - 45.1 °F 56% 29.60 in 10.0 mi NNE 11.5 mph - N/A Thunderstorm Thunderstorm
10:55 PM 61.0 °F - 45.5 °F 57% 29.61 in 10.0 mi NNE 13.8 mph - N/A Rain , Thunderstorm Light Thunderstorms and Rain
11:15 PM 58.6 °F - 47.8 °F 67% 29.65 in 10.0 mi NW 28.8 mph 40.3 mph 0.02 in Rain , Thunderstorm Thunderstorms and Rain
11:55 PM 51.4 °F - 45.7 °F 81% 29.61 in 10.0 mi NNE 16.1 mph - 0.10 in Rain , Thunderstorm Light Thunderstorms and Rain